• en France
  • Liste des pays
  • À 7 jours
  • Température de l'eau
  • Carte satellitaire
  • Carte météo
  • Widgets météo
  • user-avatar
    Se connecter

    Météo par heure à Leticia

    Ce jour, 11 Décembre, Lundi

    Heure Température Précipitation Vent Pression Humidité
    00:00 +25°C° 0 mm 0 m/s 749 mmHg 90%
    01:00 +24°C° 0 mm 0 m/s 749 mmHg 91%
    02:00 +24°C° 0 mm 0 m/s 749 mmHg 92%
    03:00 +24°C° 0 mm 0 m/s 749 mmHg 92%
    04:00 +24°C° 0 mm 0 m/s 749 mmHg 93%
    05:00 +25°C° 0 mm 0 m/s 749 mmHg 89%
    06:00 +26°C° 0 mm 0 m/s 750 mmHg 85%
    07:00 +27°C° 0 mm 0 m/s 750 mmHg 81%
    08:00 +29°C° 0 mm 0 m/s 750 mmHg 71%
    09:00 +33°C° 0 mm 1 m/s 750 mmHg 61%
    10:00 +36°C° 0 mm 1 m/s 750 mmHg 51%
    11:00 +36°C° 0 mm 1 m/s 749 mmHg 50%
    12:00 +36°C° 0 mm 1 m/s 749 mmHg 49%
    13:00 +36°C° 0 mm 1 m/s 748 mmHg 48%
    14:00 +36°C° 0 mm 1 m/s 747 mmHg 52%
    15:00 +33°C° 0 mm 0 m/s 747 mmHg 56%
    16:00 +33°C° 0 mm 0 m/s 747 mmHg 59%
    17:00 +31°C° 0,1 mm 0 m/s 747 mmHg 64%
    18:00 +30°C° 0,1 mm 0 m/s 747 mmHg 69%
    19:00 +28°C° 0,1 mm 0 m/s 748 mmHg 74%
    20:00 +27°C° 1,6 mm 0 m/s 748 mmHg 81%
    21:00 +28°C° 1,6 mm 1 m/s 749 mmHg 88%
    22:00 +27°C° 1,6 mm 1 m/s 749 mmHg 95%
    23:00 +26°C° 1,6 mm 1 m/s 749 mmHg 96%

    Demain, 12 Décembre, Mardi

    Heure Température Précipitation Vent Pression Humidité
    00:00 +26°C° 1,6 mm 1 m/s 749 mmHg 97%
    01:00 +26°C° 1,6 mm 1 m/s 749 mmHg 99%
    02:00 +26°C° 0,4 mm 1 m/s 749 mmHg 99%
    03:00 +26°C° 0,4 mm 1 m/s 749 mmHg 99%
    04:00 +26°C° 0,4 mm 1 m/s 749 mmHg 99%
    05:00 +26°C° 0,1 mm 1 m/s 749 mmHg 98%
    06:00 +26°C° 0,1 mm 1 m/s 750 mmHg 98%
    07:00 +26°C° 0,1 mm 1 m/s 750 mmHg 98%
    08:00 +27°C° 0 mm 1 m/s 750 mmHg 91%
    09:00 +29°C° 0 mm 1 m/s 751 mmHg 84%
    10:00 +30°C° 0 mm 1 m/s 751 mmHg 78%
    11:00 +32°C° 0,4 mm 1 m/s 750 mmHg 69%
    12:00 +33°C° 0,4 mm 1 m/s 749 mmHg 60%
    13:00 +35°C° 0,4 mm 1 m/s 748 mmHg 51%
    14:00 +35°C° 0 mm 1 m/s 748 mmHg 51%
    15:00 +35°C° 0 mm 1 m/s 748 mmHg 52%
    16:00 +35°C° 0 mm 1 m/s 747 mmHg 52%
    17:00 +33°C° 0 mm 1 m/s 748 mmHg 60%
    18:00 +31°C° 0 mm 1 m/s 748 mmHg 68%
    19:00 +29°C° 0 mm 1 m/s 748 mmHg 76%
    20:00 +28°C° 0,2 mm 1 m/s 749 mmHg 80%
    21:00 +27°C° 0,2 mm 1 m/s 750 mmHg 84%
    22:00 +24°C° 0,2 mm 0 m/s 750 mmHg 88%
    23:00 +26°C° 1,4 mm 1 m/s 750 mmHg 92%

    Après-demain, 13 Décembre, Mercredi

    Heure Température Précipitation Vent Pression Humidité
    00:00 +25°C° 1,4 mm 1 m/s 750 mmHg 95%
    01:00 +25°C° 1,4 mm 1 m/s 749 mmHg 99%
    02:00 +25°C° 1,2 mm 1 m/s 750 mmHg 99%
    03:00 +25°C° 1,2 mm 1 m/s 750 mmHg 99%
    04:00 +25°C° 1,2 mm 1 m/s 750 mmHg 99%
    05:00 +23°C° 0,1 mm 0 m/s 750 mmHg 98%
    06:00 +24°C° 0,1 mm 0 m/s 751 mmHg 97%
    07:00 +24°C° 0,1 mm 0 m/s 751 mmHg 95%
    08:00 +25°C° 0,1 mm 0 m/s 752 mmHg 91%
    09:00 +26°C° 0,1 mm 0 m/s 752 mmHg 87%
    10:00 +27°C° 0,1 mm 0 m/s 752 mmHg 83%
    11:00 +28°C° 0 mm 0 m/s 752 mmHg 77%
    12:00 +29°C° 0 mm 0 m/s 751 mmHg 72%
    13:00 +30°C° 0 mm 0 m/s 750 mmHg 66%
    14:00 +30°C° 0,1 mm 0 m/s 750 mmHg 65%
    15:00 +30°C° 0,1 mm 0 m/s 749 mmHg 64%
    16:00 +31°C° 0,1 mm 0 m/s 749 mmHg 63%
    17:00 +29°C° 0,3 mm 0 m/s 749 mmHg 71%
    18:00 +27°C° 0,3 mm 0 m/s 750 mmHg 80%
    19:00 +25°C° 0,3 mm 0 m/s 750 mmHg 88%
    20:00 +25°C° 0,8 mm 0 m/s 750 mmHg 91%
    21:00 +24°C° 0,8 mm 0 m/s 751 mmHg 93%
    22:00 +24°C° 0,8 mm 0 m/s 751 mmHg 95%
    23:00 +23°C° 0,3 mm 0 m/s 751 mmHg 95%

    14 Décembre, Jeudi

    Heure Température Précipitation Vent Pression Humidité
    00:00 +23°C° 0,3 mm 0 m/s 751 mmHg 96%
    01:00 +23°C° 0,3 mm 0 m/s 750 mmHg 96%
    02:00 +23°C° 0,1 mm 0 m/s 750 mmHg 97%
    03:00 +23°C° 0,1 mm 0 m/s 750 mmHg 97%
    04:00 +22°C° 0,1 mm 0 m/s 750 mmHg 97%
    05:00 +23°C° 0 mm 0 m/s 751 mmHg 95%
    06:00 +24°C° 0 mm 0 m/s 751 mmHg 93%
    07:00 +25°C° 0 mm 0 m/s 752 mmHg 91%
    08:00 +28°C° 0,1 mm 0 m/s 752 mmHg 80%
    09:00 +30°C° 0,1 mm 0 m/s 752 mmHg 68%
    10:00 +33°C° 0,1 mm 0 m/s 752 mmHg 57%
    11:00 +34°C° 0,4 mm 0 m/s 751 mmHg 54%
    12:00 +34°C° 0,4 mm 0 m/s 750 mmHg 51%
    13:00 +35°C° 0,4 mm 0 m/s 750 mmHg 48%
    14:00 +34°C° 0,2 mm 0 m/s 749 mmHg 52%
    15:00 +33°C° 0,2 mm 0 m/s 749 mmHg 56%
    16:00 +31°C° 0,2 mm 0 m/s 748 mmHg 60%
    17:00 +32°C° 0,1 mm 1 m/s 749 mmHg 68%
    18:00 +30°C° 0,1 mm 1 m/s 750 mmHg 77%
    19:00 +28°C° 0,1 mm 1 m/s 750 mmHg 85%
    20:00 +27°C° 0,2 mm 1 m/s 751 mmHg 88%
    21:00 +26°C° 0,2 mm 1 m/s 751 mmHg 92%
    22:00 +26°C° 0,2 mm 1 m/s 751 mmHg 96%
    23:00 +26°C° 0,3 mm 1 m/s 751 mmHg 96%

    15 Décembre, Vendredi

    Heure Température Précipitation Vent Pression Humidité
    00:00 +23°C° 0,3 mm 0 m/s 751 mmHg 96%
    01:00 +23°C° 0,3 mm 0 m/s 750 mmHg 97%
    02:00 +23°C° 0,1 mm 0 m/s 750 mmHg 97%
    03:00 +23°C° 0,1 mm 0 m/s 750 mmHg 97%
    04:00 +23°C° 0,1 mm 0 m/s 750 mmHg 97%
    05:00 +23°C° 0,3 mm 0 m/s 750 mmHg 95%
    06:00 +24°C° 0,3 mm 0 m/s 751 mmHg 94%
    07:00 +24°C° 0,3 mm 0 m/s 752 mmHg 93%
    08:00 +27°C° 0 mm 0 m/s 752 mmHg 80%
    09:00 +32°C° 0 mm 1 m/s 752 mmHg 66%
    10:00 +34°C° 0 mm 1 m/s 752 mmHg 53%
    11:00 +34°C° 0 mm 0 m/s 751 mmHg 49%
    12:00 +35°C° 0 mm 0 m/s 750 mmHg 46%
    13:00 +36°C° 0 mm 0 m/s 749 mmHg 42%
    14:00 +34°C° 0 mm 0 m/s 748 mmHg 49%
    15:00 +32°C° 0 mm 0 m/s 748 mmHg 56%
    16:00 +31°C° 0 mm 0 m/s 747 mmHg 64%
    17:00 +29°C° 0 mm 0 m/s 748 mmHg 67%
    18:00 +28°C° 0 mm 0 m/s 748 mmHg 71%
    19:00 +27°C° 0 mm 0 m/s 749 mmHg 75%
    20:00 +27°C° 0 mm 0 m/s 749 mmHg 76%
    21:00 +26°C° 0 mm 0 m/s 750 mmHg 78%
    22:00 +26°C° 0 mm 0 m/s 750 mmHg 79%
    23:00 +25°C° 0 mm 0 m/s 750 mmHg 81%

    16 Décembre, Samedi

    Heure Température Précipitation Vent Pression Humidité
    00:00 +25°C° 0 mm 0 m/s 749 mmHg 82%
    01:00 +27°C° 0 mm 1 m/s 749 mmHg 84%
    02:00 +24°C° 0,2 mm 0 m/s 749 mmHg 87%
    03:00 +24°C° 0,2 mm 0 m/s 749 mmHg 90%
    04:00 +23°C° 0,2 mm 0 m/s 749 mmHg 93%
    05:00 +23°C° 0,5 mm 0 m/s 750 mmHg 93%
    06:00 +24°C° 0,5 mm 0 m/s 751 mmHg 94%
    07:00 +24°C° 0,5 mm 0 m/s 752 mmHg 95%
    08:00 +25°C° 1,5 mm 0 m/s 752 mmHg 93%
    09:00 +27°C° 1,5 mm 0 m/s 752 mmHg 90%
    10:00 +28°C° 1,5 mm 0 m/s 752 mmHg 88%
    11:00 +29°C° 1,2 mm 0 m/s 751 mmHg 82%
    12:00 +30°C° 1,2 mm 0 m/s 750 mmHg 76%
    13:00 +31°C° 1,2 mm 0 m/s 749 mmHg 70%
    14:00 +31°C° 0,6 mm 0 m/s 749 mmHg 70%
    15:00 +33°C° 0,6 mm 1 m/s 748 mmHg 69%
    16:00 +33°C° 0,6 mm 1 m/s 748 mmHg 69%
    17:00 +31°C° 1,7 mm 1 m/s 748 mmHg 78%
    18:00 +29°C° 1,7 mm 1 m/s 749 mmHg 86%
    19:00 +27°C° 1,7 mm 1 m/s 749 mmHg 95%
    20:00 +24°C° 0,2 mm 0 m/s 750 mmHg 95%
    21:00 +24°C° 0,2 mm 0 m/s 750 mmHg 96%
    22:00 +24°C° 0,2 mm 0 m/s 750 mmHg 96%
    23:00 +24°C° 0,1 mm 0 m/s 750 mmHg 96%
    Voir plus